Location: ??? ???
(33.4974°N, 35.4618°E)
Time: 09:57:58
(UTC+00:00)

Cosmos 2263 Rocket - Visible Passes

Search period start: 28 February 2021 00:00
Search period end: 10 March 2021 00:00
Orbit: 825 x 847 km, 71.0° (Epoch: 27 February)

Date Brightness Start Highest point End Pass type
(mag) Time Alt. Az. Time Alt. Az. Time Alt. Az.
28 Feb 2.7 17:01:55 10° NNW 17:07:22 59° WSW 17:12:49 10° S visible
01 Mar 2.6 16:45:06 10° NNW 16:50:37 66° WSW 16:56:07 10° S visible
02 Mar 2.4 16:28:19 10° NNW 16:33:51 72° WSW 16:39:22 10° SSE visible
03 Mar 2.3 16:11:31 10° NNW 16:17:05 80° WSW 16:22:38 10° SSE visible
04 Mar 2.3 15:54:43 10° NNW 16:00:19 87° WSW 16:05:52 10° SSE visible
06 Mar 5.6 17:09:23 10° W 17:09:53 10° W 17:10:23 10° WSW visible
07 Mar 5.5 16:51:23 10° WNW 16:53:10 12° W 16:54:57 10° WSW visible
08 Mar 5.4 16:34:01 10° WNW 16:36:26 13° W 16:38:53 10° SW visible
09 Mar 5.4 16:16:49 10° WNW 16:19:43 15° W 16:22:38 10° SW visible
